loading
|

STARLINK-32124, 60298

Orbit data source: Space-Track

STARLINK-32124, 60298 is a payload satellite owned by SpaceX/Seattle (US) in LEO that was launched on Sun, 28 Jul 2024 UTC via an FALCON 9 launch vehicle from the Air Force Eastern Test Range (AFETR). Payloads include a variety of satellites, spacecraft, and rockets equipped with specific instruments for various scientific and technological missions. These include communications satellites like Starlink; space stations such as the ISS; scientific satellites like the Hubble; Earth observation satellites from companies like Planet Labs, Umbra, and HawkEye 360; GPS; miniature CubeSats for education and research; and military/defense satellites.

Loading next visibility...
Loading greatness...
STARLINK-32124 details
Identifier
60298, 2024-132W
Orbit
LEO
Last TLE update6 hours ago
Origin
Flag of USSpaceX/Seattle (US)
ManufacturerSpaceX/Seattle
Mission statusOperational
MissionUnknown
Bus & MotorSTARLINK V2M, Unknown motor
Mass750 kg wet, ~700 kg dry
Launch date (UTC)
2024-07-28 (2 months ago)
Launch vehicle
FALCON 9
Launch site
Air Force Eastern Test Range (AFETR)
Object type
Payload
Rocket body
Debris
Radar Cross SectionLarge (>1 m²)

Expand to show TLE details & history

TLE from 6 hours ago
0 STARLINK-32124
1 60298U 24132W   24261.64446453  .00037322  00000-0  93695-3 0  9990
2 60298  53.1597  32.2875 0001201  87.7240 272.3903 15.39669113  9173
Epoch: 2024-09-17T15:28Z
Definitive object data (Epoch: 2024-09-17T15:28:01.735Z)
Latitude0.00003°
Longitude163.22413°
Altitude447.956 km
Speed7.645 km/s
True Right ascension02h 09m 09s
True Declination0° 00' 00"
Sunlit
Object was in full shadow at TLE epoch
Predictive object data (real-time)
Latitude-50.40766°
Longitude46.36071°
Altitude465.232 km
Speed7.633 km/s
Apparent Right ascension22h 32m 58s
Apparent Declination-61° 53' 58"
Sunlit
Object is in daylight
Predictive observer data (real-time)
Local Sidereal Time14:03:01
Azimuth142.813° SSE
Elevation-51.803°
Doppler factor1
Orbital elements
Apogee448.164 km
Perigee446.525 km
Semi-major axis6,825.482 km
Eccentricity0.0001201
Inclination53.1597°
RAAN32.2875°
Arg. of periapsis87.724°
True anomaly272.37655°
Mean anomaly272.3903°
Eccentric anomaly272.38342°
Mean motion3.84896 °/min
BSTAR0.00093695
Period93.53 mins
No data available

STARLINK-32124 Visibility forecast

Observer location: 39.9160978°, -105.1181434

STARLINK-32124 is not visible in the next 10 days
Span
Click to sort rows by Start time (UTC) header in descending order
Start Az.
Max El. time (UTC)
Max El. Az.
Max El.
End time (UTC)
End Az.